Miscellaneous Local Product
Issued by NWS North Platte, NE

Home | Current Version | Previous Version | Text Only | Print | Product List | Glossary On
Versions: 1 2 3 4 5 6 7 8 9 10 11 12 13 14 15 16 17 18 19 20 21 22 23 24 25 26 27 28 29 30 31 32 33 34 35 36 37 38 39 40 41 42 43 44 45 46 47 48 49 50
000
AXUS43 KLBF 210710
MISLBF


WESTERN AND NORTH CENTRAL NEBRASKA HOURLY WEATHER ROUNDUP
NATIONAL WEATHER SERVICE NORTH PLATTE NE
200 AM CDT THU SEP 21 2017

NOTE: "FAIR" INDICATES FEW OR NO CLOUDS BELOW 12,000 FEET WITH NO
SIGNIFICANT WEATHER AND/OR OBSTRUCTIONS TO VISIBILITY.

NOTE: STATIONS NOT REPORTING VARIABLES SUCH AS SKY/WEATHER OR
PRESSURE ARE PROVIDED BY RAWS AND APRS NETWORKS AND ARE NOT UNDER
NATIONAL WEATHER SERVICE QUALITY CONTROL.

...OBSERVATIONS IN AND NEAR THE EASTERN PANHANDLE OF NEBRASKA...

CITY           SKY/WX    TMP DP  RH WIND       PRES   REMARKS
PINE RIDGE     CLEAR     65  34  31 S22G36    29.75F
GORDON         FAIR      61  35  38 S12G18    29.81F
CHADRON        CLEAR     66  32  28 S30G41    29.72F
ALLIANCE       CLEAR     56  35  45 S17       29.81F
SIDNEY         CLEAR     57  33  40 S15       29.85F
CRESCENT LAKE    N/A     56  38  51 SE7G15      N/A
$$

...OBSERVATIONS IN NORTHERN NEBRASKA AND FAR SOUTHERN SOUTH DAKOTA...

CITY           SKY/WX    TMP DP  RH WIND       PRES   REMARKS
WINNER         FAIR      64  44  48 S15       29.82S
VALENTINE      CLEAR     54  43  66 E6        29.84F
THEDFORD       CLEAR     56  43  61 SE10      29.87F
AINSWORTH      CLEAR     55  45  69 S9        29.86F
O`NEILL        CLEAR     53  47  78 SE6       29.89S
ORD            CLEAR     47  43  86 CALM      29.88S
BROKEN BOW     CLEAR     47  41  80 CALM      29.89S
VALENTINE NWR    N/A     53  43  68 S7G14       N/A
HALSEY           N/A     55  41  59 SE6         N/A
BUTTE            N/A     55  46  73 SE9         N/A
CHAMBERS         N/A     52  44  74 CALM        N/A
EWING            N/A     51  47  87 CALM        N/A
$$

...OBSERVATIONS IN SOUTHWEST NEBRASKA AND FAR NORTHEAST COLORADO...

CITY           SKY/WX    TMP DP  RH WIND       PRES   REMARKS
WRAY           FAIR      54  34  47 E5        29.85F
IMPERIAL       CLEAR     53  38  56 SE12      29.85F
OGALLALA       CLEAR     53  38  58 E3        29.86F
NORTH PLATTE   CLEAR     47  44  90 E8        29.88F
MCCOOK         CLEAR     52  41  66 E5        29.86F
LEXINGTON      CLEAR     50  44  79 CALM      29.89S
STAPLETON        N/A     54  42  64 CALM        N/A
GOTHENBURG       N/A     53  42  67 CALM        N/A
CALLAWAY         N/A     50  45  84 SE9         N/A
$$

...OBSERVATIONS IN CENTRAL LINCOLN COUNTY AREA...

CITY           SKY/WX    TMP DP  RH WIND       PRES   REMARKS
N.P. AIRPORT   CLEAR     47  44  90 E8        29.88F
N.P. DOWNTOWN    N/A     54  45  72 CALM        N/A
N.P. SOUTHEAST   N/A     51  45  80 CALM        N/A
N.P. HILLCREST   N/A     55  44  66 E9          N/A
$$

...SOME OBSERVATIONS FROM AROUND THE REGION...

CITY           SKY/WX    TMP DP  RH WIND       PRES   REMARKS
DENVER         CLEAR     62  33  33 SW16      29.82F
LIMON          CLOUDY    48  35  60 CALM      29.91F
ASPEN          CLOUDY    53  26  35 SE9G17    29.99F
LARAMIE        CLOUDY    49  28  44 S9        29.87F
CASPER         CLOUDY    46  35  65 SE5       29.70F
CHEYENNE       CLOUDY    52  31  44 S12       29.86F
SCOTTSBLUFF    CLEAR     58  35  42 E15       29.79F
GRAND ISLAND   CLEAR     58  52  80 E7        29.89S
OMAHA          PTCLDY    61  54  77 N6        29.90R
SIOUX FALLS    CLEAR     50  48  93 E5        29.93R
PIERRE         CLEAR     59  40  49 SE18      29.77F
BISMARCK       PTCLDY    54  38  54 SE3       29.74S
KANSAS CITY    CLOUDY    79  73  82 S12       29.88R
HILL CITY      CLEAR     57  43  59 E6        29.87F
WICHITA        PTCLDY    77  73  87 S12       29.83F
DODGE CITY     CLEAR     60  50  69 SE8       29.87F
OKLAHOMA CITY  CLOUDY    78  71  79 S12       29.86S
DALLAS         CLOUDY    83  73  72 S15       29.87F
AMARILLO       CLEAR     65  47  52 SE16      29.93S
$$




USA.gov is the U.S. government's official web portal to all federal, state and local government web resources and services.